Miscellaneous Local Product
Issued by NWS Hastings, NE

Home | Current Version | Previous Version | Graphics & Text | Print | Product List | Glossary On
Versions: 1 2 3 4 5 6 7 8 9 10 11 12 13 14 15 16 17 18 19 20 21 22 23 24 25 26 27 28 29 30 31 32 33 34 35 36 37 38 39 40 41 42 43 44 45 46 47 48 49 50
699
AXUS43 KGID 241202
MISGRI

GID CWA HOURLY WEATHER ROUNDUP
NATIONAL WEATHER SERVICE HASTINGS NE
700 AM CDT WED MAY 24 2017

NOTE: "FAIR" INDICATES FEW OR NO CLOUDS BELOW 12,000 FEET WITH NO
SIGNIFICANT WEATHER AND/OR OBSTRUCTIONS TO VISIBILITY.

...SOUTH CENTRAL NEBRASKA...

CITY           SKY/WX    TMP DP  RH WIND       PRES   REMARKS
GRAND ISLAND   CLEAR     44  42  93 NW9       29.86R
HASTINGS       CLEAR     45  41  86 NW7       29.86S
KEARNEY        CLEAR     43  37  81 NW5       29.85F
ORD            CLEAR     39  37  92 NW5       29.84F
YORK           CLEAR     45  43  93 NW10      29.83S
AURORA         CLEAR     45  42  90 NW9       29.84R
LEXINGTON      CLEAR     37  36  93 NW6       29.86F WCI  33
HOLDREGE       CLEAR     41  38  90 NW6       29.86S
HEBRON         CLEAR     47  44  89 NW6       29.83R

...NEBRASKA PANHANDLE...

CITY           SKY/WX    TMP DP  RH WIND       PRES   REMARKS
CHADRON        CLOUDY    44  35  70 S3        29.80F
ALLIANCE       CLEAR     33  31  92 SE8       29.83F WCI  26
SCOTTSBLUFF    CLEAR     38  34  85 E10       29.82F WCI  31
SIDNEY         CLOUDY    33  31  92 S8        29.86F WCI  26

...WESTERN AND NORTH CENTRAL NEBRASKA...

CITY           SKY/WX    TMP DP  RH WIND       PRES   REMARKS
VALENTINE      CLOUDY    33  29  85 SW5       29.85F WCI  29
AINSWORTH      CLOUDY    37  36  96 W5        29.85F WCI  33
ONEILL         CLEAR     42  40  90 W6        29.85S
BROKEN BOW     CLEAR     38  36  92 W3        29.85F
IMPERIAL       CLEAR     37  33  85 NW3       29.89F
NORTH PLATTE   CLEAR     32  31  96 NW6       29.88S WCI  26
MCCOOK         CLEAR     38  37  97 W7        29.89S WCI  33

...EASTERN NEBRASKA...

CITY           SKY/WX    TMP DP  RH WIND       PRES   REMARKS
NORFOLK        MOCLDY    44  42  93 W7        29.82F
SO SIOUX CITY  MOCLDY    46  46 100 NW12      29.81R
TEKAMAH        CLEAR     48  45  89 NW12      29.79R
ALBION         CLEAR     41  39  91 NW3       29.84S
OMAHA EPPLEY   PTCLDY    49  44  83 N13       29.77R
OFFUTT AFB     CLEAR     50  45  85 N7        29.76R
MILLARD        PTCLDY    50  47  88 NW8       29.78S
LINCOLN        PTCLDY    48  44  86 NW13      29.81S
NEBRASKA CITY  MOCLDY    51  46  83 N12       29.76S
BEATRICE       CLEAR     47  46  94 NW9       29.79S
FALLS CITY     CLOUDY    50  47  89 NW12      29.74S

...NORTHERN KANSAS...

CITY           SKY/WX    TMP DP  RH WIND       PRES   REMARKS
GOODLAND       CLEAR     35  33  92 W6        29.89F WCI  30
HILL CITY      CLEAR     41  38  89 NW9       29.89S
NORTON         SUNNY     37  34  87 W8        29.87F WCI  31
PHILLIPSBURG   CLEAR     43  43 100 NW8       29.87F
SMITH CENTER   CLEAR     39  37  93 CALM      29.87F
HAYS           CLEAR     40  38  93 NW8       29.88S WCI  34
RUSSELL        CLEAR     42  39  89 NW7       29.85F
CONCORDIA      CLEAR     44  43  96 NW6       29.83S
SALINA         CLEAR     47  43  86 NW10      29.83F
TOPEKA         CLOUDY    49  48  97 W9        29.75F



USA.gov is the U.S. government's official web portal to all federal, state and local government web resources and services.